| time (UTC) | temp C | wind direction | speed KPH | gust KPH | rain 1hr cm | rain 24hr cm | rain mn cm | humidity % | barometer mb |
| 20260508072702 | 19 | 113 | 1.6 | 4.8 | 0.00 | 0.00 | 0.00 | 52 | 1017.4 |
| 20260508071802 | 18 | 133 | 1.6 | 6.4 | 0.00 | 0.00 | 0.00 | 54 | 1017.4 |
| 20260508070901 | 18 | 158 | 1.6 | 3.2 | 0.00 | 0.00 | 0.00 | 54 | 1017.2 |
| 20260508065100 | 18 | 113 | 1.6 | 3.2 | 0.00 | 0.00 | 0.00 | 56 | 1017.2 |
| 20260508064159 | 18 | 113 | 3.2 | 4.8 | 0.00 | 0.00 | 0.00 | 56 | 1017.2 |
| 20260508063259 | 18 | 135 | 1.6 | 4.8 | 0.00 | 0.00 | 0.00 | 57 | 1017.3 |
| 20260508062400 | 18 | 135 | 1.6 | 4.8 | 0.00 | 0.00 | 0.00 | 58 | 1017.3 |
| 20260508061458 | 18 | 135 | 3.2 | 6.4 | 0.00 | 0.00 | 0.00 | 61 | 1017.3 |
| 20260508060557 | 17 | 158 | 1.6 | 3.2 | 0.00 | 0.00 | 0.00 | 65 | 1017.4 |
| 20260508055718 | 16 | 0.0 | 3.2 | 0.00 | 0.00 | 0.00 | 69 | 1017.4 | |
| 20260508054817 | 15 | 135 | 1.6 | 4.8 | 0.00 | 0.00 | 0.00 | 71 | 1017.5 |
| 20260508053915 | 13 | 135 | 0.0 | 4.8 | 0.00 | 0.00 | 0.00 | 74 | 1017.4 |
| 20260508052054 | 13 | 135 | 1.6 | 3.2 | 0.00 | 0.00 | 0.00 | 74 | 1017.4 |
| 20260508051153 | 13 | 113 | 1.6 | 3.2 | 0.00 | 0.00 | 0.00 | 74 | 1017.3 |
| 20260508050252 | 13 | 0.0 | 3.2 | 0.00 | 0.00 | 0.00 | 74 | 1017.3 | |
| 20260508045352 | 13 | 0.0 | 3.2 | 0.00 | 0.00 | 0.00 | 74 | 1017.3 | |
| 20260508044453 | 13 | 158 | 1.6 | 3.2 | 0.00 | 0.00 | 0.00 | 75 | 1017.2 |
| 20260508043550 | 13 | 0.0 | 3.2 | 0.00 | 0.00 | 0.00 | 77 | 1017.1 | |
| 20260508042650 | 12 | 113 | 1.6 | 3.2 | 0.00 | 0.00 | 0.00 | 79 | 1017.3 |
| 20260508041749 | 12 | 113 | 1.6 | 3.2 | 0.00 | 0.00 | 0.00 | 80 | 1017.2 |
| 20260508040848 | 11 | 0.0 | 4.8 | 0.00 | 0.00 | 0.00 | 80 | 1017.1 | |
| 20260508035127 | 11 | 113 | 3.2 | 6.4 | 0.00 | 0.00 | 0.00 | 80 | 1017.0 |
| 20260508034207 | 11 | 3.2 | 6.4 | 0.00 | 0.00 | 0.00 | 81 | 1017.1 | |
| 20260508033246 | 11 | 135 | 3.2 | 6.4 | 0.00 | 0.00 | 0.00 | 81 | 1017.0 |
| 20260508032345 | 11 | 135 | 1.6 | 6.4 | 0.00 | 0.00 | 0.00 | 81 | 1017.0 |
| 20260508031444 | 11 | 158 | 0.0 | 3.2 | 0.00 | 0.00 | 0.00 | 81 | 1017.0 |
| 20260508030544 | 11 | 135 | 1.6 | 3.2 | 0.00 | 0.00 | 0.00 | 81 | 1017.0 |
| 20260508025703 | 11 | 135 | 1.6 | 6.4 | 0.00 | 0.00 | 0.00 | 81 | 1017.0 |
| 20260508024743 | 11 | 0.0 | 3.2 | 0.00 | 0.00 | 0.00 | 81 | 1016.9 | |
| 20260508023842 | 11 | 150 | 1.6 | 4.8 | 0.00 | 0.00 | 0.00 | 81 | 1016.9 |
| 20260508022041 | 11 | 113 | 3.2 | 6.4 | 0.00 | 0.00 | 0.00 | 81 | 1016.9 |
| 20260508021140 | 11 | 1.6 | 3.2 | 0.00 | 0.00 | 0.00 | 81 | 1016.9 | |
| 20260508020239 | 11 | 0.0 | 3.2 | 0.00 | 0.00 | 0.00 | 81 | 1017.0 | |
| 20260508015420 | 10 | 0.0 | 1.6 | 0.00 | 0.00 | 0.00 | 81 | 1017.0 | |
| 20260508014438 | 10 | 1.6 | 3.2 | 0.00 | 0.00 | 0.00 | 81 | 1017.0 | |
| 20260508013537 | 10 | 113 | 1.6 | 6.4 | 0.00 | 0.00 | 0.00 | 81 | 1017.0 |
| 20260508012637 | 10 | 113 | 1.6 | 3.2 | 0.00 | 0.00 | 0.00 | 81 | 1017.1 |
| 20260508011738 | 10 | 135 | 3.2 | 4.8 | 0.00 | 0.00 | 0.00 | 81 | 1017.0 |
| 20260508010835 | 10 | 0.0 | 3.2 | 0.00 | 0.00 | 0.00 | 80 | 1017.0 | |
| 20260508005034 | 10 | 0.0 | 3.2 | 0.00 | 0.00 | 0.00 | 80 | 1017.1 | |
| 20260508004134 | 10 | 0.0 | 3.2 | 0.00 | 0.00 | 0.00 | 80 | 1017.2 | |
| 20260508003235 | 10 | 113 | 1.6 | 4.8 | 0.00 | 0.00 | 0.00 | 80 | 1017.3 |
| 20260508002332 | 10 | 135 | 0.0 | 3.2 | 0.00 | 0.00 | 0.00 | 79 | 1017.3 |
| 20260508001432 | 10 | 158 | 1.6 | 3.2 | 0.00 | 0.00 | 0.00 | 79 | 1017.4 |
| 20260508000531 | 10 | 0.0 | 3.2 | 0.00 | 0.00 | 0.00 | 78 | 1017.3 | |
| 20260507235631 | 10 | 135 | 1.6 | 4.8 | 0.00 | 0.00 | 0.00 | 78 | 1017.3 |
| 20260507234749 | 11 | 135 | 1.6 | 4.8 | 0.00 | 0.00 | 0.00 | 77 | 1017.3 |
| 20260507233829 | 11 | 135 | 0.0 | 4.8 | 0.00 | 0.00 | 0.00 | 77 | 1017.3 |
| 20260507232029 | 11 | 0.0 | 4.8 | 0.00 | 0.00 | 0.00 | 76 | 1017.5 | |
| 20260507231127 | 11 | 135 | 3.2 | 6.4 | 0.00 | 0.00 | 0.00 | 76 | 1017.5 |
| 20260507230226 | 11 | 0.0 | 1.6 | 0.00 | 0.00 | 0.00 | 75 | 1017.5 | |
| 20260507225326 | 11 | 0.0 | 4.8 | 0.00 | 0.00 | 0.00 | 75 | 1017.6 | |
| 20260507224425 | 11 | 158 | 1.6 | 4.8 | 0.00 | 0.00 | 0.00 | 74 | 1017.8 |
| 20260507223524 | 11 | 1.6 | 3.2 | 0.00 | 0.00 | 0.00 | 74 | 1017.7 | |
| 20260507222624 | 11 | 0.0 | 3.2 | 0.00 | 0.00 | 0.00 | 74 | 1017.7 | |
| 20260507221724 | 11 | 135 | 1.6 | 3.2 | 0.00 | 0.00 | 0.00 | 73 | 1017.7 |
| 20260507220822 | 12 | 0.0 | 3.2 | 0.00 | 0.00 | 0.00 | 72 | 1017.8 | |
| 20260507215021 | 12 | 0.0 | 3.2 | 0.00 | 0.00 | 0.00 | 72 | 1017.8 | |
| 20260507214141 | 12 | 135 | 1.6 | 4.8 | 0.00 | 0.00 | 0.00 | 72 | 1017.7 |
| 20260507213220 | 12 | 158 | 0.0 | 3.2 | 0.00 | 0.00 | 0.00 | 72 | 1017.8 |
| 20260507212319 | 12 | 0.0 | 3.2 | 0.00 | 0.00 | 0.00 | 71 | 1017.7 | |
| 20260507211418 | 12 | 0.0 | 1.6 | 0.00 | 0.00 | 0.00 | 71 | 1017.7 | |
| 20260507210518 | 12 | 0.0 | 3.2 | 0.00 | 0.00 | 0.00 | 71 | 1017.7 | |
| 20260507205617 | 13 | 0.0 | 1.6 | 0.00 | 0.00 | 0.00 | 70 | 1017.7 | |
| 20260507204717 | 13 | 1.6 | 3.2 | 0.00 | 0.00 | 0.00 | 70 | 1017.7 | |
| 20260507203816 | 13 | 158 | 1.6 | 4.8 | 0.00 | 0.00 | 0.00 | 69 | 1017.7 |
| 20260507202015 | 13 | 0.0 | 1.6 | 0.00 | 0.00 | 0.00 | 68 | 1017.6 | |
| 20260507201216 | 13 | 135 | 1.6 | 6.4 | 0.00 | 0.00 | 0.00 | 68 | 1017.6 |
| 20260507200213 | 14 | 1.6 | 3.2 | 0.00 | 0.00 | 0.00 | 67 | 1017.7 | |
| 20260507195313 | 14 | 158 | 1.6 | 3.2 | 0.00 | 0.00 | 0.00 | 66 | 1017.8 |
| 20260507194412 | 14 | 0.0 | 1.6 | 0.00 | 0.00 | 0.00 | 65 | 1017.7 | |
| 20260507193512 | 15 | 0.0 | 3.2 | 0.00 | 0.00 | 0.00 | 65 | 1017.6 | |
| 20260507192611 | 15 | 0.0 | 3.2 | 0.00 | 0.00 | 0.00 | 64 | 1017.5 | |
| 20260507191812 | 15 | 0.0 | 3.2 | 0.00 | 0.00 | 0.00 | 63 | 1017.6 | |
| 20260507190810 | 15 | 135 | 1.6 | 8.0 | 0.00 | 0.00 | 0.00 | 62 | 1017.6 |
| 20260507185929 | 16 | 135 | 1.6 | 6.4 | 0.00 | 0.00 | 0.00 | 60 | 1017.7 |
| 20260507184130 | 16 | 135 | 1.6 | 6.4 | 0.00 | 0.00 | 0.00 | 60 | 1017.5 |
| 20260507183207 | 16 | 135 | 3.2 | 8.0 | 0.00 | 0.00 | 0.00 | 58 | 1017.5 |
| 20260507182307 | 16 | 0.0 | 3.2 | 0.00 | 0.00 | 0.00 | 57 | 1017.4 | |
| 20260507181406 | 17 | 0.0 | 4.8 | 0.00 | 0.00 | 0.00 | 56 | 1017.4 | |
| 20260507180505 | 17 | 158 | 1.6 | 3.2 | 0.00 | 0.00 | 0.00 | 55 | 1017.2 |
| 20260507175604 | 17 | 158 | 1.6 | 3.2 | 0.00 | 0.00 | 0.00 | 54 | 1017.1 |
| 20260507174704 | 18 | 135 | 3.2 | 8.0 | 0.00 | 0.00 | 0.00 | 53 | 1017.3 |
| 20260507173803 | 18 | 125 | 1.6 | 8.0 | 0.00 | 0.00 | 0.00 | 51 | 1017.0 |
| 20260507172902 | 19 | 113 | 1.6 | 4.8 | 0.00 | 0.00 | 0.00 | 49 | 1017.0 |
| 20260507171101 | 19 | 158 | 3.2 | 6.4 | 0.00 | 0.00 | 0.00 | 47 | 1017.1 |
| 20260507170201 | 20 | 135 | 1.6 | 3.2 | 0.00 | 0.00 | 0.00 | 46 | 1017.0 |
| 20260507165300 | 20 | 135 | 3.2 | 8.0 | 0.00 | 0.00 | 0.00 | 44 | 1016.9 |
| 20260507164359 | 20 | 158 | 3.2 | 4.8 | 0.00 | 0.00 | 0.00 | 42 | 1017.0 |
| 20260507163459 | 21 | 135 | 3.2 | 6.4 | 0.00 | 0.00 | 0.00 | 40 | 1016.9 |
| 20260507162558 | 21 | 113 | 1.6 | 4.8 | 0.00 | 0.00 | 0.00 | 39 | 1016.9 |
| 20260507161657 | 21 | 113 | 3.2 | 6.4 | 0.00 | 0.00 | 0.00 | 37 | 1016.9 |
| 20260507160756 | 21 | 158 | 3.2 | 6.4 | 0.00 | 0.00 | 0.00 | 35 | 1016.9 |
| 20260507155939 | 22 | 139 | 1.6 | 6.4 | 0.00 | 0.00 | 0.00 | 31 | 1016.7 |
| 20260507154055 | 22 | 158 | 3.2 | 6.4 | 0.00 | 0.00 | 0.00 | 29 | 1016.6 |
| 20260507153154 | 22 | 135 | 1.6 | 4.8 | 0.00 | 0.00 | 0.00 | 28 | 1016.8 |
| 20260507152253 | 23 | 158 | 3.2 | 6.4 | 0.00 | 0.00 | 0.00 | 27 | 1016.6 |
| 20260507151353 | 23 | 113 | 1.6 | 6.4 | 0.00 | 0.00 | 0.00 | 26 | 1016.9 |
| 20260507150534 | 23 | 135 | 1.6 | 3.2 | 0.00 | 0.00 | 0.00 | 26 | 1016.8 |
| 20260507145553 | 23 | 3.2 | 8.0 | 0.00 | 0.00 | 0.00 | 25 | 1016.7 | |
| 20260507144651 | 23 | 3.2 | 8.0 | 0.00 | 0.00 | 0.00 | 24 | 1016.7 | |
| 20260507143751 | 24 | 135 | 1.6 | 4.8 | 0.00 | 0.00 | 0.00 | 24 | 1016.8 |
| 20260507142849 | 25 | 113 | 1.6 | 4.8 | 0.00 | 0.00 | 0.00 | 21 | 1016.6 |
| 20260507141050 | 25 | 3.2 | 9.7 | 0.00 | 0.00 | 0.00 | 17 | 1016.7 | |
| 20260507140149 | 26 | 158 | 3.2 | 6.4 | 0.00 | 0.00 | 0.00 | 15 | 1016.5 |
| 20260507135247 | 26 | 135 | 3.2 | 4.8 | 0.00 | 0.00 | 0.00 | 14 | 1016.5 |
| 20260507134406 | 25 | 158 | 3.2 | 4.8 | 0.00 | 0.00 | 0.00 | 13 | 1016.4 |
| 20260507133506 | 26 | 158 | 1.6 | 6.4 | 0.00 | 0.00 | 0.00 | 11 | 1016.4 |
| 20260507132545 | 27 | 135 | 1.6 | 4.8 | 0.00 | 0.00 | 0.00 | 1016.5 | |
| 20260507131646 | 27 | 158 | 1.6 | 4.8 | 0.00 | 0.00 | 0.00 | 1016.5 | |
| 20260507130744 | 28 | 135 | 3.2 | 4.8 | 0.00 | 0.00 | 0.00 | 1016.4 | |
| 20260507125843 | 28 | 120 | 1.6 | 6.4 | 0.00 | 0.00 | 0.00 | 1016.5 | |
| 20260507124043 | 27 | 135 | 3.2 | 8.0 | 0.00 | 0.00 | 0.00 | 1016.9 | |
| 20260507123141 | 27 | 135 | 3.2 | 6.4 | 0.00 | 0.00 | 0.00 | 1016.8 | |
| 20260507122241 | 27 | 135 | 1.6 | 3.2 | 0.00 | 0.00 | 0.00 | 1017.0 | |
| 20260507121400 | 27 | 135 | 3.2 | 9.7 | 0.00 | 0.00 | 0.00 | 1017.0 | |
| 20260507120540 | 27 | 158 | 1.6 | 3.2 | 0.00 | 0.00 | 0.00 | 1017.2 | |
| 20260507115539 | 27 | 113 | 3.2 | 6.4 | 0.00 | 0.00 | 0.00 | 1017.0 | |
| 20260507114638 | 27 | 158 | 3.2 | 8.0 | 0.00 | 0.00 | 0.00 | 1017.2 | |
| 20260507113757 | 28 | 113 | 3.2 | 8.0 | 0.00 | 0.00 | 0.00 | 1017.1 | |
| 20260507112836 | 28 | 144 | 3.2 | 6.4 | 0.00 | 0.00 | 0.00 | 1017.2 | |
| 20260507111036 | 27 | 135 | 1.6 | 4.8 | 0.00 | 0.00 | 0.00 | 1017.3 | |
| 20260507110135 | 27 | 113 | 1.6 | 3.2 | 0.00 | 0.00 | 0.00 | 1017.3 | |
| 20260507105235 | 28 | 113 | 1.6 | 8.0 | 0.00 | 0.00 | 0.00 | 1017.3 | |
| 20260507104334 | 28 | 135 | 1.6 | 3.2 | 0.00 | 0.00 | 0.00 | 1017.5 | |
| 20260507103433 | 28 | 113 | 6.4 | 12.9 | 0.00 | 0.00 | 0.00 | 1017.5 | |
| 20260507102532 | 28 | 135 | 1.6 | 3.2 | 0.00 | 0.00 | 0.00 | 1017.6 | |
| 20260507101652 | 28 | 135 | 1.6 | 3.2 | 0.00 | 0.00 | 0.00 | 1017.5 | |
| 20260507100731 | 28 | 135 | 3.2 | 8.0 | 0.00 | 0.00 | 0.00 | 1017.6 | |
| 20260507095911 | 28 | 135 | 3.2 | 11.3 | 0.00 | 0.00 | 0.00 | 1017.6 | |
| 20260507094029 | 28 | 135 | 3.2 | 6.4 | 0.00 | 0.00 | 0.00 | 1017.7 | |
| 20260507093129 | 27 | 135 | 3.2 | 6.4 | 0.00 | 0.00 | 0.00 | 1017.8 | |
| 20260507092228 | 27 | 158 | 1.6 | 4.8 | 0.00 | 0.00 | 0.00 | 1017.7 | |
| 20260507091327 | 27 | 135 | 3.2 | 8.0 | 0.00 | 0.00 | 0.00 | 1017.7 | |
| 20260507090427 | 27 | 135 | 3.2 | 4.8 | 0.00 | 0.00 | 0.00 | 1017.7 | |
| 20260507085526 | 27 | 158 | 3.2 | 9.7 | 0.00 | 0.00 | 0.00 | 1017.7 | |
| 20260507084625 | 27 | 113 | 3.2 | 8.0 | 0.00 | 0.00 | 0.00 | 1017.8 | |
| 20260507083726 | 28 | 158 | 3.2 | 8.0 | 0.00 | 0.00 | 0.00 | 1017.7 | |
| 20260507082824 | 27 | 113 | 1.6 | 6.4 | 0.00 | 0.00 | 0.00 | 1017.6 | |
| 20260507081023 | 27 | 135 | 1.6 | 6.4 | 0.00 | 0.00 | 0.00 | 1017.6 | |
| 20260507080122 | 26 | 113 | 3.2 | 6.4 | 0.00 | 0.00 | 0.00 | 1017.6 | |
| 20260507075221 | 26 | 3.2 | 6.4 | 0.00 | 0.00 | 0.00 | 1017.5 | ||
| 20260507074321 | 26 | 113 | 1.6 | 4.8 | 0.00 | 0.00 | 0.00 | 1017.5 | |
| 20260507073420 | 26 | 113 | 3.2 | 8.0 | 0.00 | 0.00 | 0.00 | 1017.7 |